EW3861 Weather Reports


time (UTC)temp
F
wind
direction
speed
knots
gust
knots
rain 1hr
in
rain 24hr
in
rain mn
in
humidity
%
barometer
mb
20260505064602 48 211 0.0 0.0 0.00 0.00 0.00 88 1010.0
20260505063017 49 211 0.0 0.0 0.00 0.00 0.00 88 1010.2
20260505061601 49 212 0.0 0.0 0.00 0.00 0.00 87 1010.2
20260505060016 49 213 0.0 0.0 0.00 0.00 0.00 87 1010.2
20260505054635 50 215 0.0 0.0 0.00 0.00 0.00 87 1010.2
20260505053044 50 215 0.0 0.0 0.00 0.00 0.00 86 1010.2
20260505051633 50 213 0.0 0.0 0.00 0.00 0.00 85 1010.2
20260505041522 51 219 0.0 0.0 0.00 0.00 0.00 81 1010.5
20260505040009 51 216 0.0 0.0 0.00 0.00 0.00 80 1010.4
20260505034635 52 227 0.0 0.0 0.00 0.00 0.00 79 1010.4
20260505033054 52 219 0.0 0.0 0.00 0.00 0.00 78 1010.2
20260505031509 52 224 0.0 0.0 0.00 0.00 0.00 77 1010.3
20260505030110 53 229 0.0 0.0 0.00 0.00 0.00 76 1010.4
20260505024551 53 217 0.0 0.0 0.00 0.00 0.00 75 1010.4
20260505023010 54 220 0.0 0.0 0.00 0.00 0.00 74 1010.4
20260505021600 54 220 0.0 0.0 0.00 0.00 0.00 72 1010.5
20260505020028 54 213 0.0 0.0 0.00 0.00 0.00 71 1010.5
20260505014508 55 209 0.0 0.0 0.00 0.00 0.00 69 1010.4
20260505013101 55 227 0.0 0.0 0.00 0.00 0.00 67 1010.3
20260505011522 56 244 0.0 0.0 0.00 0.00 0.00 64 1010.1
20260505010119 56 229 0.0 0.0 0.00 0.00 0.00 62 1009.8
20260505004533 57 213 0.0 0.0 0.00 0.00 0.00 61 1009.5
20260505003126 57 211 0.0 0.0 0.00 0.00 0.00 60 1009.1
20260505001541 58 221 0.0 0.0 0.00 0.00 0.00 58 1008.9
20260505000008 58 208 0.0 0.0 0.00 0.00 0.00 57 1008.5
20260504234617 59 245 0.0 0.0 0.00 0.00 0.00 56 1008.4
20260504233041 60 205 0.0 0.0 0.00 0.00 0.00 54 1008.2
20260504231630 61 290 0.0 0.0 0.00 0.00 0.00 51 1008.0
20260504230057 62 219 0.0 0.0 0.00 0.00 0.00 50 1007.6
20260504224512 64 200 0.0 0.0 0.00 0.00 0.00 48 1007.3
20260504223107 65 217 0.0 0.0 0.00 0.00 0.00 45 1007.3
20260504221537 65 154 0.0 0.0 0.00 0.00 0.00 44 1007.2
20260504220110 66 234 0.0 0.0 0.00 0.00 0.00 44 1007.1
20260504214544 67 202 0.0 0.0 0.00 0.00 0.00 42 1007.1
20260504213004 68 188 0.0 0.0 0.00 0.00 0.00 39 1006.9
20260504211552 68 217 0.0 0.0 0.00 0.00 0.00 40 1006.8
20260504210004 69 221 0.0 0.0 0.00 0.00 0.00 38 1006.7
20260504204605 69 234 0.0 0.0 0.00 0.00 0.00 36 1006.7
20260504203011 70 217 0.0 0.0 0.00 0.00 0.00 34 1006.7
20260504201553 70 294 0.0 0.0 0.00 0.00 0.00 33 1006.7
20260504200013 70 314 0.0 0.0 0.00 0.00 0.00 33 1006.7
20260504194622 70 221 0.0 0.0 0.00 0.00 0.00 32 1006.8
20260504193042 70 203 0.0 0.0 0.00 0.00 0.00 32 1006.8
20260504191502 71 213 0.0 0.0 0.00 0.00 0.00 31 1006.8
20260504190056 70 314 0.0 0.0 0.00 0.00 0.00 32 1006.9
20260504184527 69 165 0.0 0.0 0.00 0.00 0.00 33 1007.1
20260504183118 70 142 0.0 0.0 0.00 0.00 0.00 32 1007.1
20260504181539 69 206 0.0 0.0 0.00 0.00 0.00 32 1007.3
20260504180016 69 196 0.0 0.0 0.00 0.00 0.00 33 1007.5
20260504174628 69 254 0.0 0.0 0.00 0.00 0.00 33 1007.6
20260504173052 68 227 0.0 0.0 0.00 0.00 0.00 32 1007.3
20260504171510 68 232 0.0 0.0 0.00 0.00 0.00 32 1007.4
20260504150113 63 302 0.0 0.0 0.00 0.00 0.00 39 1009.0
20260504081501 39 244 0.0 0.0 0.00 0.00 0.00 85 1010.0
20260504080113 38 244 0.0 0.0 0.00 0.00 0.00 84 1010.0
20260504070108 37 244 0.0 0.0 0.00 0.00 0.00 86 1010.0